Theta_e
329 324 318 313 310 310 307 301 297 292 294 289 286 290 295 296 298 301 301 303 302 304 305 311 310 307 304 303 304 304 308 305 302 296 295 301 320 330 326 328 332 334 333 333 336 342 344 344 345 343 342 341 340 340 340 340 340 341 340 340 341 345 345 345 346 346 346 346 346 346 347 347 346 346 345 344 343 342 342 341 341 341 341 341 341 340 341 341 340 341 341 342 341 339 339 338 337
325 319 314 312 312 310 304 296 291 286 287 287 289 290 290 293 300 299 301 300 301 308 309 314 314 314 313 312 311 311 307 312 304 312 314 322 331 328 327 332 334 332 332 333 338 339 338 340 345 343 342 340 340 339 340 339 340 341 341 341 343 345 344 344 345 345 346 346 346 346 346 346 345 345 344 344 343 343 342 342 342 342 342 341 341 341 341 341 340 340 341 340 340 339 338 338 336
324 316 314 311 309 305 302 299 296 283 284 285 284 290 292 296 297 298 301 300 305 312 312 312 312 311 310 308 307 306 302 314 313 316 321 328 325 327 330 332 334 333 333 334 335 335 334 338 343 343 340 340 339 339 340 340 342 343 342 342 343 345 345 345 345 345 345 345 345 346 346 345 345 345 344 344 342 342 342 341 341 341 340 341 341 341 341 340 341 340 340 339 338 338 337 336 336
315 317 313 308 307 303 296 292 288 286 289 284 285 290 293 294 296 299 299 300 311 310 307 308 311 312 309 306 308 311 310 312 314 319 320 324 324 329 332 334 333 334 335 333 334 334 335 341 343 343 340 340 339 340 340 340 343 344 343 344 345 345 345 344 344 344 344 344 345 345 345 344 344 344 344 344 343 341 340 340 340 340 340 340 340 341 341 340 341 340 340 340 339 338 338 337 336
314 315 312 305 303 302 294 292 288 285 288 285 291 291 291 295 296 297 302 303 308 305 302 308 309 313 313 311 311 307 307 312 315 319 320 324 328 333 334 333 335 336 334 334 333 334 337 341 342 343 340 340 340 340 340 340 341 343 345 345 345 345 344 344 344 343 343 344 345 345 346 345 345 344 344 342 341 341 340 340 340 340 340 340 340 340 340 340 340 339 339 339 339 338 337 337 335
314 312 313 308 304 304 299 294 292 289 290 288 291 293 294 297 298 299 304 304 307 302 303 306 309 309 311 313 313 309 311 309 315 316 322 323 330 334 335 334 336 336 334 333 332 333 337 341 341 342 340 341 341 340 340 341 340 343 346 345 345 344 343 344 344 344 344 345 345 345 346 345 344 343 343 343 342 341 340 340 340 339 340 339 339 340 340 340 339 339 339 339 339 338 337 335 335
313 309 308 306 304 303 295 290 288 288 294 292 293 292 296 297 300 302 303 305 304 305 303 309 310 309 307 309 313 315 317 320 318 316 324 324 332 334 335 336 337 335 334 332 332 334 336 341 343 343 343 341 340 340 340 340 341 343 344 344 344 343 345 345 344 343 344 345 345 345 345 345 344 343 343 342 342 341 340 340 340 339 339 338 339 339 339 339 339 339 339 338 338 338 336 334 334
313 309 304 300 296 297 292 289 290 289 296 294 294 296 297 299 299 302 302 301 302 305 308 311 308 307 306 311 307 315 317 319 320 320 326 330 333 333 335 336 335 335 334 331 332 333 342 341 342 343 343 342 341 340 340 342 343 343 343 343 343 344 345 345 343 343 344 345 345 344 344 344 344 343 342 342 342 341 340 340 339 339 339 338 338 338 339 339 338 338 338 338 338 337 336 334 334
310 306 304 299 296 292 289 293 293 294 294 295 296 296 305 300 301 302 301 301 302 303 308 311 307 304 303 308 305 312 314 317 321 327 329 331 332 334 335 335 335 335 335 334 332 333 336 340 341 342 342 343 342 341 340 343 342 342 343 343 343 343 344 344 343 343 344 345 345 344 344 344 343 342 341 341 340 339 339 339 339 339 339 338 338 338 338 338 337 338 338 338 338 337 336 335 334
308 306 299 298 295 295 289 292 294 295 296 296 298 300 300 300 301 302 301 302 303 306 308 307 305 304 307 307 308 313 314 316 325 326 328 330 332 333 333 335 336 335 335 335 332 333 335 342 339 340 340 342 342 341 341 341 341 341 343 343 343 343 343 343 342 342 342 344 344 344 343 342 342 341 340 340 340 339 339 339 338 338 338 338 338 338 338 337 337 337 337 337 336 336 336 336 335
303 302 301 298 290 291 291 292 291 294 296 299 296 296 300 302 303 300 301 303 302 306 305 307 306 307 308 309 311 315 315 319 325 324 328 329 331 331 331 333 335 336 334 335 334 332 335 337 342 338 338 339 340 342 342 342 342 342 342 343 343 343 343 343 343 342 342 344 344 343 342 341 341 341 340 340 340 338 338 338 338 338 338 338 337 337 337 336 336 337 337 337 336 335 335 335 336
303 298 297 288 291 293 291 292 292 296 298 296 296 302 301 303 302 302 300 302 302 302 304 307 306 308 307 308 307 310 313 319 321 327 328 328 329 329 329 330 332 334 335 335 334 330 330 336 340 340 335 336 337 339 339 341 342 343 343 343 343 343 342 342 342 342 341 342 341 342 341 341 340 340 340 341 340 339 339 338 338 338 338 337 337 337 336 336 336 336 336 335 335 334 334 334 334
302 298 295 295 293 293 291 293 293 296 295 296 298 300 302 303 304 303 300 301 300 303 304 306 312 309 303 307 308 311 312 318 319 326 326 327 327 327 327 328 330 331 333 334 333 330 328 334 337 338 334 334 334 335 336 338 341 342 343 343 343 343 343 343 343 343 342 342 343 343 342 342 342 341 341 341 340 340 338 338 337 337 337 337 336 335 335 335 335 335 335 335 334 334 334 334 334
302 299 300 297 292 292 293 293 292 296 293 298 297 295 303 302 302 302 301 302 300 303 305 307 314 311 310 311 309 309 312 315 319 323 325 326 327 326 326 327 327 328 329 331 332 330 328 331 334 333 332 332 332 333 333 335 338 340 340 341 342 342 342 342 341 341 342 342 341 340 340 341 341 341 340 340 340 339 338 337 337 336 337 336 335 335 334 335 335 334 334 334 334 333 333 333 332
307 300 295 293 291 292 292 297 296 292 295 297 301 300 301 303 300 300 304 302 303 305 311 314 313 307 303 307 303 312 316 315 321 320 323 325 325 325 324 325 326 326 327 328 329 329 330 329 331 330 331 331 331 331 329 334 334 336 337 338 338 339 339 338 338 338 338 338 338 337 337 336 336 336 336 336 337 336 335 333 334 337 336 336 335 334 334 334 334 334 334 333 334 333 333 332 331
305 300 296 297 292 293 295 295 293 294 297 297 299 296 299 300 300 302 302 304 303 307 311 311 311 307 307 308 306 311 315 317 319 321 323 324 323 320 322 323 326 326 327 327 328 329 329 330 331 332 332 331 330 330 330 330 332 332 334 335 335 336 336 335 334 334 332 332 332 332 332 332 332 331 331 331 332 333 333 329 332 336 335 335 335 334 334 333 333 333 333 333 333 332 331 330 331
304 302 297 289 293 292 295 295 295 295 296 296 297 298 298 298 301 302 305 306 306 308 310 311 309 314 311 308 312 316 315 318 320 322 323 324 324 323 324 324 326 326 327 327 327 328 329 331 332 333 333 331 330 330 330 329 331 331 331 331 331 332 332 333 331 328 326 325 326 325 327 328 329 329 329 329 327 328 325 326 330 334 336 335 334 334 334 334 334 333 333 333 332 330 327 326 325
305 300 294 292 293 294 296 298 298 300 299 299 298 296 299 297 300 303 309 307 308 310 310 310 312 312 313 313 316 316 316 319 321 322 323 323 324 323 323 324 324 324 326 327 327 328 330 331 332 333 333 333 332 331 329 329 328 332 331 330 330 330 330 329 329 328 330 325 324 326 328 328 328 329 329 330 327 327 325 325 327 331 334 334 335 334 334 335 335 333 333 333 333 327 321 310 311
301 294 295 297 294 299 301 300 301 298 299 297 299 296 299 299 300 302 304 301 307 307 308 310 311 312 314 315 315 314 316 318 320 321 321 322 322 322 322 323 324 326 325 327 327 328 330 331 332 332 333 334 332 332 330 328 330 332 332 331 331 330 331 332 331 328 324 324 324 325 326 327 328 329 328 328 327 324 326 325 327 329 331 331 332 334 333 333 334 334 333 332 328 320 312 310 309
300 299 294 297 299 299 300 301 302 300 301 302 301 299 296 299 301 303 303 301 304 304 305 307 309 311 312 312 313 314 316 317 319 320 321 322 322 323 323 323 324 325 326 327 327 329 330 330 331 332 332 333 333 332 331 331 332 333 333 333 332 331 331 330 331 327 323 323 323 324 326 327 327 328 328 328 328 326 324 322 322 325 326 327 327 327 328 326 328 326 324 324 317 312 310 306 309
302 298 295 298 299 301 303 302 303 302 300 302 301 297 296 296 301 302 299 302 303 305 306 308 308 312 313 313 313 313 314 315 317 319 320 321 323 324 324 324 324 325 327 327 326 327 329 330 329 330 331 331 332 332 331 331 331 332 333 332 331 330 330 330 329 327 324 322 322 324 325 325 326 326 326 326 326 327 326 326 325 324 324 325 322 322 317 315 315 313 311 312 310 311 311 307 308
301 301 303 299 299 300 303 303 303 302 295 298 295 296 299 299 301 301 302 301 301 306 309 309 310 311 314 313 313 313 314 314 316 317 318 319 320 321 323 324 325 325 324 324 325 326 328 330 329 328 328 329 331 332 332 331 331 331 331 331 330 329 328 328 328 328 324 321 321 322 324 325 325 325 325 325 325 326 326 325 325 324 323 322 321 320 316 314 312 310 309 310 310 309 310 309 308
301 302 300 300 300 303 301 299 300 298 297 296 296 297 299 300 299 298 303 304 304 302 305 308 308 314 316 316 313 312 313 313 315 316 317 318 318 320 321 323 323 323 323 324 324 324 327 329 328 326 326 328 330 332 332 331 331 331 330 330 329 328 328 327 327 327 326 323 320 321 324 324 324 324 324 324 324 325 324 324 323 322 321 320 320 318 317 315 313 312 311 310 308 309 309 309 308
303 303 300 303 302 303 302 305 296 294 296 296 296 297 299 298 297 299 301 305 305 302 298 305 310 317 316 314 313 313 313 314 314 316 318 318 319 320 321 321 323 323 322 322 321 323 323 327 328 326 324 326 328 331 331 330 330 330 329 328 328 327 327 327 327 327 326 324 321 322 324 325 324 324 323 323 323 323 323 323 323 321 320 320 320 319 317 316 315 313 309 308 310 309 311 310 308
302 301 301 301 301 302 304 303 303 301 297 295 296 297 298 298 298 297 299 305 306 303 310 313 315 315 314 314 313 312 313 314 314 315 316 318 318 318 317 318 319 319 319 320 321 322 322 325 327 326 325 324 327 329 329 330 330 330 329 328 327 326 326 327 327 327 326 325 323 322 322 324 324 324 323 322 322 321 322 322 321 320 320 320 320 319 318 317 315 312 311 309 308 309 308 310 307
302 303 301 302 303 302 303 302 301 302 301 299 299 299 300 297 297 297 300 301 304 302 311 312 313 313 313 314 314 313 312 313 314 314 315 316 316 316 317 318 319 319 321 321 321 322 322 323 325 326 325 324 325 326 328 328 329 328 328 327 327 325 326 327 327 326 326 325 324 323 322 323 324 323 322 322 321 321 321 321 320 320 319 319 319 318 318 317 317 311 308 308 308 307 307 309 307
304 304 305 304 304 304 303 303 302 299 301 295 300 300 300 295 296 299 298 302 301 304 309 310 313 313 313 313 314 314 313 313 313 315 314 314 314 316 317 317 318 320 321 320 321 322 322 323 324 325 325 323 324 324 326 327 328 327 327 328 327 326 326 326 326 326 325 325 324 324 323 322 324 323 323 322 321 321 320 320 319 319 319 319 319 318 318 317 316 314 311 311 310 308 310 308 307
302 304 304 303 303 303 302 300 299 295 302 294 300 300 299 293 294 300 299 297 301 303 306 311 312 312 313 313 313 314 314 314 314 313 314 313 315 316 316 317 318 319 319 320 321 322 322 322 323 324 325 324 323 324 324 325 325 327 327 327 327 327 326 325 325 324 323 325 324 324 324 323 322 323 323 322 321 320 319 319 318 318 318 318 319 318 317 316 315 313 308 308 308 307 309 307 306
302 303 300 300 301 301 302 302 304 300 301 293 295 294 292 292 294 299 297 297 301 302 306 310 311 312 313 313 313 313 314 314 313 313 314 316 317 317 317 318 319 318 320 321 321 321 322 322 323 324 325 324 323 324 324 324 324 325 325 326 326 326 326 325 324 323 323 323 323 324 324 323 321 322 322 322 320 320 319 318 318 317 317 318 318 317 316 314 311 308 309 307 307 306 306 310 306
304 303 300 300 301 300 303 302 300 299 301 293 298 295 298 297 297 296 295 298 300 301 302 308 311 311 312 313 314 314 314 313 313 314 315 315 316 317 317 318 319 319 319 319 319 320 322 323 324 324 324 324 323 324 324 324 323 323 323 324 324 325 325 324 323 323 322 321 320 322 323 324 322 321 321 320 320 319 319 318 318 317 316 315 315 314 314 311 310 307 310 307 310 308 309 310 307
301 299 299 298 294 294 300 303 294 300 296 293 300 295 298 297 298 295 294 298 300 300 301 305 309 310 312 313 314 314 315 316 316 316 316 316 316 317 317 318 318 319 318 318 318 320 321 323 324 324 323 324 323 323 323 324 323 323 323 322 322 322 323 323 323 321 320 320 319 319 321 322 322 322 320 319 318 318 318 317 315 316 314 311 312 310 311 310 310 311 308 308 307 306 306 308 309
298 296 294 294 295 294 299 302 299 301 299 292 297 292 296 301 302 298 298 294 297 299 299 301 306 309 310 312 313 314 315 317 317 317 317 316 316 316 317 317 318 318 318 319 319 319 319 322 322 324 323 323 323 323 323 324 324 324 323 322 322 321 321 321 321 321 320 319 319 319 318 320 320 321 319 318 318 317 317 316 316 315 313 312 312 310 308 310 309 309 309 308 308 309 307 309 306
296 297 293 292 294 296 297 299 298 304 300 292 297 291 289 295 298 300 300 297 296 298 298 298 301 305 308 311 313 314 315 315 316 317 318 318 318 317 317 317 318 319 319 319 319 318 319 320 321 323 323 324 324 323 323 323 324 323 323 323 322 322 322 322 322 321 320 319 319 319 319 318 318 319 318 318 318 317 316 316 315 314 312 312 311 310 310 311 310 310 309 307 308 311 308 308 308
295 297 294 292 293 293 295 298 297 297 301 296 292 294 293 297 295 296 296 296 294 296 299 299 298 301 305 308 310 312 313 314 315 317 318 319 319 318 318 317 318 318 319 319 319 319 319 319 320 321 323 324 324 324 323 323 324 324 323 323 321 322 322 322 322 321 320 319 319 319 319 319 318 318 318 318 318 318 317 316 315 313 312 311 311 310 311 309 308 309 310 307 308 308 309 309 309
292 294 294 294 292 294 295 295 297 296 295 298 294 291 294 298 301 301 297 293 295 296 298 298 296 296 300 305 307 310 312 313 315 317 318 319 319 319 319 319 318 317 318 318 318 319 318 318 319 319 320 323 323 324 323 324 324 324 323 322 321 321 321 321 321 320 320 320 319 319 319 319 317 318 318 317 317 317 316 315 314 313 312 312 311 310 309 308 307 307 309 310 305 309 311 308 309
292 295 296 295 293 292 293 297 297 298 295 294 296 294 293 294 298 299 299 293 295 297 297 294 295 294 295 299 305 308 310 312 316 317 317 319 320 320 320 320 319 318 317 317 316 317 318 317 317 318 319 321 322 323 323 323 324 322 321 321 321 320 321 320 320 320 320 320 320 319 319 319 318 318 318 317 317 316 316 315 314 313 312 312 311 310 309 309 310 309 308 309 308 306 304 306 303
294 293 292 294 295 295 295 297 298 296 296 296 296 297 297 297 298 300 300 298 293 294 294 295 296 296 295 295 298 303 307 311 313 315 316 317 319 320 320 319 319 318 317 316 315 316 317 317 316 316 318 319 320 320 321 322 322 322 322 321 320 322 321 320 319 319 319 320 320 320 319 319 319 318 318 318 317 316 316 316 315 313 313 312 312 312 312 311 311 310 309 307 308 308 307 305 304
293 292 291 292 294 294 297 298 299 295 297 296 296 296 296 298 300 301 301 297 296 296 296 297 297 296 296 296 296 297 301 305 306 310 314 314 316 317 319 319 317 317 317 316 315 315 317 317 317 317 317 318 319 320 321 321 323 323 322 322 322 322 321 320 319 319 319 319 319 320 319 319 319 319 318 318 317 317 316 316 315 315 313 313 313 313 311 309 309 309 307 306 305 309 307 305 306
295 292 290 290 293 295 296 298 299 297 294 295 293 292 295 297 299 301 300 300 300 299 300 300 301 300 298 296 296 297 297 298 300 305 309 313 315 316 318 319 319 319 319 318 317 316 315 316 317 317 317 317 318 319 320 320 321 322 323 322 323 321 321 321 321 321 320 319 319 319 319 319 319 319 319 318 318 318 317 317 316 316 314 313 313 312 311 311 311 310 309 311 307 302 306 304 307
295 293 290 291 291 293 289 294 296 296 296 288 290 292 296 298 298 299 300 300 300 300 299 300 301 302 302 301 301 300 299 298 298 300 302 307 313 315 316 317 318 319 319 319 318 316 316 316 316 317 317 317 318 318 318 320 320 321 322 321 320 321 319 317 318 319 319 318 319 319 319 319 319 319 319 319 318 319 318 317 317 316 315 314 314 314 312 312 311 311 310 310 309 308 304 307 306
295 295 293 293 289 293 293 291 295 292 293 293 292 294 297 298 296 297 301 300 299 300 298 298 299 300 302 303 302 302 302 301 300 300 301 301 306 312 315 317 318 318 319 319 319 317 317 316 316 317 317 317 318 317 317 318 317 316 316 311 311 311 311 312 314 316 317 318 318 318 319 319 319 319 319 319 318 319 318 318 317 317 316 315 314 315 314 314 314 313 312 311 310 312 311 306 304
293 295 296 295 291 292 292 292 293 291 292 291 293 286 290 296 298 299 302 299 299 300 299 299 300 299 299 299 300 302 301 301 301 302 302 302 303 308 313 315 317 318 319 320 320 319 318 317 317 317 318 318 318 318 318 318 317 317 315 315 313 313 314 314 314 315 316 317 317 319 318 319 319 319 319 319 319 318 318 318 318 317 316 316 315 316 316 314 314 313 313 314 312 312 313 308 306
291 292 298 297 295 293 291 290 290 285 286 289 295 289 286 290 293 297 299 300 301 299 298 301 302 301 300 300 301 301 301 301 300 300 301 301 302 303 308 313 317 318 319 321 320 320 319 318 317 317 317 318 318 318 317 317 317 317 316 316 316 315 315 316 317 317 317 318 318 317 319 318 319 319 318 319 319 318 318 319 318 318 318 318 316 316 316 316 316 315 315 314 314 313 312 313 312
290 296 296 297 296 295 293 292 289 286 286 287 289 292 286 288 294 293 297 298 299 299 299 298 300 302 302 302 302 302 302 302 303 302 301 301 302 303 304 310 315 318 319 320 320 321 320 318 317 317 317 317 318 318 317 317 317 317 316 316 316 316 316 316 317 317 316 315 315 317 317 317 317 318 319 318 319 318 317 318 319 318 318 318 317 317 317 317 316 316 315 315 315 315 315 314 314
294 296 298 297 297 294 292 293 290 285 287 287 286 287 285 286 290 295 295 294 296 297 299 299 299 300 302 303 303 303 303 303 303 303 302 302 302 302 305 306 312 316 318 319 320 321 321 320 318 317 317 317 317 317 317 317 317 317 317 316 316 316 317 317 314 314 315 314 314 315 315 317 317 317 318 318 318 319 316 317 318 318 318 318 317 319 318 318 317 317 316 316 316 316 317 317 316
297 299 300 298 297 294 295 289 288 287 286 285 288 287 285 286 291 289 292 295 296 297 299 299 300 300 301 302 303 303 303 302 302 303 304 304 303 303 304 306 308 313 317 319 320 321 321 321 319 317 316 317 317 317 317 317 317 316 317 316 316 316 316 316 312 313 313 313 315 315 314 315 316 316 317 318 318 319 318 317 317 318 318 318 316 319 319 319 319 318 319 318 318 317 318 317 316
301 300 296 294 296 295 289 288 288 287 285 286 290 288 289 283 289 290 291 293 297 297 297 298 299 300 301 302 303 304 303 302 302 302 302 303 303 302 301 303 307 310 314 317 318 320 320 320 320 317 317 318 317 317 317 317 317 317 317 317 316 316 316 315 313 313 313 311 314 314 314 315 315 316 316 316 317 318 318 317 317 317 318 317 315 317 318 319 319 319 319 318 317 317 317 317 316
301 296 293 293 288 291 290 288 288 284 282 290 293 290 289 283 287 292 296 297 296 299 298 295 297 299 301 302 302 304 303 303 302 302 301 301 300 298 299 302 304 307 311 315 317 318 319 320 320 319 318 317 317 317 317 317 317 317 317 317 317 317 316 316 315 315 314 314 314 314 314 313 314 314 315 315 316 317 317 317 316 317 317 317 317 317 317 317 317 317 318 318 318 318 318 317 318
299 295 295 289 284 285 282 286 282 283 283 290 293 292 286 287 292 291 292 296 296 296 298 299 298 299 300 301 302 303 303 302 301 301 301 301 300 299 299 301 303 305 308 313 315 317 318 319 319 319 318 318 317 317 317 317 317 317 317 317 317 317 317 317 316 316 316 315 315 314 313 314 314 313 314 315 315 316 316 317 317 318 318 318 318 318 317 317 317 318 318 318 318 318 318 318 318
295 293 291 287 282 281 281 284 285 286 288 292 290 293 287 292 295 299 299 299 297 296 295 296 299 300 300 301 302 302 302 301 301 301 301 301 301 300 300 301 302 304 307 310 313 315 317 318 319 319 319 319 318 317 317 317 317 317 318 318 318 317 317 317 317 317 317 316 316 315 315 315 314 315 315 315 316 315 316 317 317 318 318 319 318 318 318 318 319 319 319 318 318 319 319 319 319
295 298 295 289 288 284 280 283 281 283 285 285 287 288 284 288 291 292 294 293 299 303 299 295 296 299 300 302 301 301 299 298 300 300 300 301 301 300 300 300 302 304 305 308 311 314 316 317 318 318 318 318 318 317 317 317 317 317 318 318 318 318 317 317 317 318 317 316 316 316 316 315 315 315 315 315 314 315 316 316 317 317 317 318 318 318 318 319 320 320 319 320 319 320 319 319 319
297 298 298 291 288 290 284 286 287 287 282 281 285 287 291 294 300 292 291 291 293 292 296 294 296 297 297 298 299 299 299 298 297 299 300 300 301 300 299 299 300 302 304 306 309 313 315 317 318 318 319 319 318 317 318 317 317 318 318 318 318 318 316 317 317 316 317 318 317 316 316 315 316 315 314 314 314 315 316 316 316 317 317 318 318 318 319 320 320 320 320 320 320 321 320 320 320
293 295 288 292 298 295 287 285 283 283 283 284 287 285 287 294 297 299 301 298 294 292 292 292 294 295 294 296 297 297 298 297 296 297 299 301 301 300 300 299 299 300 302 305 308 311 314 316 316 317 318 318 318 318 318 318 318 317 317 318 318 317 317 316 317 317 317 317 316 316 316 315 314 314 314 314 314 315 316 316 316 316 317 317 318 318 319 320 321 321 320 320 320 321 320 320 321
297 288 293 298 295 291 288 283 282 283 281 281 288 285 286 287 285 293 297 297 297 292 293 294 294 295 295 298 297 298 299 299 299 298 298 298 299 300 300 299 299 299 300 302 305 309 313 315 316 317 317 317 318 319 318 319 318 317 317 317 318 318 318 318 318 318 317 315 315 315 314 313 314 313 314 314 315 315 316 312 316 316 317 317 317 318 319 321 322 321 321 321 321 321 320 320 320
296 294 302 292 285 284 285 284 280 278 280 282 286 286 287 288 290 288 288 293 295 295 294 293 294 295 296 298 299 300 300 299 299 298 296 295 295 296 297 299 299 298 298 300 303 307 310 313 315 317 317 318 319 319 319 319 319 319 319 318 318 318 318 318 318 317 315 315 315 315 315 315 312 312 312 313 314 315 315 315 316 316 317 317 318 319 320 321 322 321 321 321 322 322 321 320 320
292 294 294 293 292 289 287 287 287 286 281 282 283 285 284 291 292 295 294 292 293 295 295 294 296 297 298 298 300 300 301 301 300 298 296 296 296 296 297 298 298 298 297 298 298 301 307 311 312 314 315 316 317 317 317 318 319 319 319 318 318 318 318 318 318 317 316 316 316 316 315 314 314 312 314 314 314 314 314 315 316 317 318 319 319 320 321 321 322 321 321 321 321 321 320 320 320
291 290 288 290 288 289 291 290 288 285 283 284 282 282 285 293 297 296 296 297 294 295 296 297 297 297 298 299 300 301 301 301 299 297 296 296 296 296 296 296 297 294 293 294 296 299 303 308 310 312 314 314 315 317 317 318 319 319 318 318 318 318 318 318 317 317 316 316 316 313 315 315 312 314 313 313 313 313 314 314 315 315 318 319 319 320 321 321 321 320 320 320 319 320 319 319 318
294 292 289 293 290 286 283 282 291 289 286 281 282 281 289 289 292 297 297 298 295 295 296 297 297 297 298 299 300 301 301 299 296 296 297 297 296 295 292 291 290 291 293 294 296 297 299 303 308 311 312 314 314 315 317 318 318 318 318 318 318 318 318 318 317 317 316 317 316 315 314 311 313 314 313 313 313 313 313 314 314 315 317 318 319 320 320 320 319 319 319 320 319 317 317 317 316
Wind_Speed
10 8 6 1 3 2 3 7 1 3 2 1 2 1 0 0 0 0 1 0 0 1 1 1 0 3 3 3 4 2 1 6 6 5 2 1 1 5 4 3 5 6 5 4 6 5 4 7 8 9 10 9 10 9 9 8 9 10 9 7 11 11 10 10 12 13 13 14 14 14 14 15 15 15 15 15 15 15 15 14 14 15 15 15 16 17 16 17 17 17 17 17 18 17 18 18 17
6 7 4 1 1 2 1 1 4 4 5 3 2 1 2 2 1 3 6 4 2 1 1 4 5 6 6 4 4 2 1 1 2 0 1 2 5 3 3 5 8 7 4 3 5 6 3 4 8 10 10 10 11 11 9 9 8 10 10 9 11 11 10 10 11 12 12 13 13 14 14 14 15 15 14 14 15 14 14 14 14 14 15 15 16 16 16 16 17 17 17 17 17 16 16 17 17
6 7 3 3 4 5 2 4 1 1 3 1 3 5 2 0 3 3 5 2 2 4 3 3 3 3 2 1 0 1 2 0 1 1 2 4 12 5 4 5 7 7 5 4 5 6 4 5 10 11 11 11 11 10 9 9 9 9 9 8 10 10 10 9 9 11 12 11 12 13 14 14 14 14 14 14 14 14 14 14 13 14 15 15 15 16 16 16 15 16 17 16 16 16 16 16 16
2 2 1 4 3 4 2 4 4 3 1 2 3 2 1 2 6 4 3 2 5 2 0 0 2 1 0 1 0 1 0 0 1 5 4 7 4 7 5 6 6 5 4 3 4 5 5 7 11 10 11 11 12 11 10 10 11 9 9 9 9 9 9 9 9 9 10 10 11 12 13 13 13 14 14 14 13 13 14 13 13 13 14 14 15 15 15 15 15 16 15 16 16 16 16 15 16
5 2 4 4 2 3 2 1 3 2 1 4 0 3 4 4 4 2 1 1 3 1 2 0 2 2 0 1 0 1 1 1 0 4 1 1 1 8 7 5 6 7 5 3 4 5 5 11 11 9 10 10 12 11 10 9 10 10 9 9 8 9 9 9 9 9 9 10 10 11 12 14 13 13 13 13 13 13 13 13 13 13 13 14 14 14 15 15 15 15 15 14 15 15 15 15 15
4 4 4 2 1 2 4 1 1 1 4 5 1 2 2 5 3 4 1 1 3 2 2 0 1 3 0 1 2 0 2 1 2 1 4 4 6 8 9 6 7 7 5 4 4 4 6 11 11 10 11 10 11 11 10 9 10 10 10 10 9 9 10 10 9 9 9 8 10 10 12 13 14 13 13 13 14 13 13 13 13 13 12 13 13 14 14 14 14 14 14 14 14 14 14 14 14
3 4 4 4 2 3 3 1 2 3 5 6 2 3 2 3 4 5 2 0 2 0 2 1 2 1 2 1 1 1 1 2 2 2 7 4 8 8 8 8 8 7 6 5 4 4 6 11 11 10 9 10 12 11 11 10 10 9 9 11 10 10 10 9 9 10 9 9 10 11 11 12 13 12 12 13 13 13 12 12 12 12 12 12 12 13 13 14 14 14 13 13 13 14 13 13 14
1 2 2 2 1 4 1 0 3 4 2 5 1 3 3 4 3 5 5 2 1 2 0 1 1 1 1 3 1 1 2 1 1 3 7 9 9 8 7 9 9 7 6 4 4 4 9 11 10 9 9 10 11 11 11 8 10 9 9 9 9 9 10 10 9 10 10 10 11 10 12 12 13 12 12 12 13 12 12 12 11 12 11 11 11 11 12 12 13 13 13 13 13 13 13 13 13
5 4 0 3 1 3 2 3 4 3 6 2 6 6 5 4 5 5 5 2 1 0 1 3 1 1 2 1 2 1 2 3 3 8 10 10 10 9 6 8 11 8 6 5 4 4 4 9 9 9 9 8 9 9 11 10 9 10 9 9 9 9 9 9 9 9 10 11 12 11 11 12 12 11 11 11 12 11 11 11 11 12 11 11 11 11 11 11 12 12 13 13 13 13 12 12 12
2 2 3 1 2 1 2 5 1 1 2 3 3 5 2 3 4 3 5 0 2 1 1 0 1 0 0 2 3 2 1 1 5 7 7 11 10 9 8 8 9 9 7 5 4 3 4 11 8 8 8 7 8 8 9 10 9 9 9 9 10 10 9 9 9 9 10 11 11 11 11 11 11 11 10 11 11 11 10 10 10 10 11 11 11 10 11 10 11 12 12 13 12 12 11 11 11
1 5 2 2 2 1 2 5 3 6 4 5 8 6 5 5 5 3 2 1 0 2 1 2 1 1 2 2 3 1 1 4 8 9 8 9 9 8 8 7 8 9 7 6 4 3 4 5 8 8 8 8 7 5 9 9 10 10 10 8 10 10 10 10 9 9 9 11 11 12 11 10 10 10 10 10 10 10 9 9 10 10 10 10 10 10 9 9 10 11 11 12 12 11 10 10 10
1 1 3 2 1 3 4 2 3 7 8 4 2 0 3 6 3 2 2 2 2 1 4 5 2 7 1 3 3 1 2 6 4 9 9 8 7 7 7 6 7 7 9 7 4 3 4 4 5 6 9 8 7 6 8 7 8 9 10 10 10 9 11 10 9 9 9 8 8 9 10 10 10 9 10 9 8 9 10 9 9 9 9 9 9 9 8 8 9 10 11 11 11 11 10 9 9
2 1 5 2 2 0 1 0 2 2 4 3 1 1 3 6 5 5 4 1 2 2 4 7 2 2 2 4 3 4 2 7 3 7 9 9 7 5 5 6 7 7 7 7 6 4 4 4 5 4 5 8 7 8 9 7 6 5 9 10 10 9 9 10 9 7 7 7 9 9 7 7 9 9 9 7 7 9 9 8 8 8 8 8 8 8 8 8 8 9 9 10 11 11 11 9 8
2 4 4 1 1 1 1 2 0 2 4 4 2 1 2 4 4 4 6 4 4 5 2 5 3 2 1 2 5 2 5 5 4 6 6 7 6 6 5 6 6 6 6 6 7 6 4 4 5 4 5 4 4 7 8 8 6 5 7 7 8 7 7 8 9 7 7 9 9 8 9 9 9 8 7 7 8 8 7 7 7 8 8 7 7 7 7 7 7 8 8 8 10 11 11 10 9
0 1 4 3 0 1 2 1 1 3 2 1 1 1 2 2 3 4 7 6 8 2 1 1 4 2 4 7 6 7 6 8 8 6 6 5 5 5 5 5 5 5 5 6 5 6 5 4 5 4 4 4 4 4 4 6 8 5 7 6 6 7 5 8 8 8 9 8 9 8 8 9 9 9 8 8 8 8 7 7 7 6 6 6 6 6 6 6 6 6 7 7 8 10 10 10 10
3 4 2 1 2 2 4 2 0 2 5 2 1 0 0 3 0 4 5 4 1 1 1 4 0 3 1 7 1 3 9 10 8 8 7 7 5 4 4 4 5 5 5 5 6 5 5 5 4 5 5 5 4 4 4 4 7 7 7 6 7 8 8 8 9 9 9 9 8 9 9 8 7 6 8 5 7 8 7 6 6 6 5 5 4 4 4 4 5 5 5 6 7 8 8 8 8
2 4 0 2 4 3 3 2 4 3 2 2 3 0 2 2 1 2 1 1 2 1 1 1 3 1 3 2 2 1 9 10 9 9 8 7 6 5 5 4 5 5 5 6 6 6 6 7 6 5 5 5 5 5 4 4 5 8 7 7 8 9 9 9 9 9 8 8 7 7 8 5 4 4 4 4 5 4 6 7 5 5 4 4 3 2 2 3 3 3 4 5 6 6 6 6 6
1 2 3 2 4 4 4 4 7 1 1 2 1 4 3 2 1 1 1 3 2 0 3 3 1 2 1 3 1 5 8 13 12 13 10 10 7 7 7 7 7 9 8 7 6 6 7 6 7 7 6 6 6 5 4 4 4 6 5 4 4 6 7 8 7 5 6 4 7 6 4 4 4 4 4 5 3 3 3 6 5 5 5 4 2 1 1 2 3 1 1 4 6 5 5 3 3
3 1 3 7 4 5 7 4 6 1 5 2 0 1 3 5 4 2 2 2 2 2 4 0 3 3 2 1 6 9 10 11 12 12 14 15 12 13 10 8 8 8 8 7 7 8 7 7 7 8 7 6 6 5 4 4 4 4 4 4 4 5 5 6 5 4 4 5 5 5 4 4 4 4 4 4 3 4 3 2 3 4 5 5 3 1 2 3 4 5 6 6 6 5 3 2 2
3 5 5 6 5 4 5 3 4 7 1 5 5 2 3 3 4 1 4 3 1 8 6 2 5 7 4 3 6 8 9 10 11 13 14 16 13 13 12 14 11 11 10 8 8 6 7 7 8 7 8 7 6 5 4 4 5 5 4 4 4 4 3 4 4 4 4 5 5 5 4 4 3 3 3 7 5 3 2 2 2 3 3 3 3 3 5 6 7 6 6 6 4 2 2 2 3
1 3 4 5 4 2 5 7 7 6 3 2 3 0 2 3 5 4 3 2 6 7 7 12 13 11 9 7 9 9 10 10 10 10 12 13 12 9 11 13 12 9 7 5 6 7 8 7 7 7 7 7 7 5 5 5 5 4 4 4 4 4 4 3 3 4 4 4 4 5 5 4 4 3 3 2 2 2 2 2 2 1 1 0 2 1 1 2 2 2 2 2 2 2 2 2 3
4 7 7 5 2 3 6 6 6 3 3 2 0 2 6 1 0 4 8 10 9 11 12 11 9 5 12 12 11 9 11 13 13 12 14 15 16 14 10 9 7 6 5 7 9 7 8 7 7 6 7 7 7 6 6 6 6 6 5 5 5 3 4 4 4 4 4 3 4 4 4 5 4 3 2 3 2 3 3 3 3 2 1 2 0 1 1 1 1 1 1 2 1 1 1 2 2
5 3 4 4 5 5 2 2 3 4 1 1 0 3 1 1 2 3 8 12 5 1 1 6 5 5 5 7 12 11 12 13 14 15 15 13 13 12 12 10 11 10 9 10 8 7 7 7 7 6 7 7 7 6 6 6 6 6 5 5 5 5 4 4 4 4 4 4 3 4 5 5 5 4 5 4 4 3 4 3 3 3 3 2 2 3 2 2 2 2 1 1 1 1 3 2 2
4 8 2 6 6 9 6 4 6 2 5 5 3 1 1 1 4 0 5 9 7 1 4 3 6 9 9 11 13 17 18 17 18 18 17 19 19 19 16 13 10 6 6 7 7 8 8 10 9 7 7 7 7 6 7 7 6 6 6 5 6 6 6 5 4 5 4 4 4 4 4 5 6 5 4 5 4 4 4 4 3 3 3 4 2 2 3 3 2 2 2 2 1 1 3 3 3
7 6 4 4 3 5 5 5 5 4 6 2 2 4 8 5 3 1 6 11 9 5 2 4 5 7 8 10 13 11 13 13 14 14 9 8 7 4 3 5 5 6 9 8 8 8 9 9 9 9 7 7 7 6 7 6 6 6 6 6 6 5 6 5 5 5 5 4 4 5 5 5 5 5 6 5 4 5 4 4 4 4 4 4 3 3 3 3 3 3 3 3 1 2 2 3 3
6 8 4 3 5 5 5 4 5 6 2 2 2 7 10 8 1 5 12 9 9 3 4 4 5 6 9 12 14 13 13 15 14 11 15 9 5 7 8 8 8 10 12 10 8 9 7 8 10 11 10 9 7 7 7 6 6 7 6 6 6 6 6 6 5 6 5 5 5 5 5 5 6 6 6 5 5 5 5 4 4 4 4 3 4 4 3 3 4 3 4 3 3 3 3 3 1
7 7 10 8 6 5 3 6 5 3 4 4 4 6 7 1 7 9 3 11 1 5 5 4 7 9 9 9 11 11 13 15 16 13 5 7 7 10 11 8 10 12 10 10 9 9 8 8 10 10 10 8 7 8 7 7 7 7 6 6 5 6 6 5 5 5 5 5 5 6 6 6 6 6 7 6 6 5 5 5 5 4 4 4 4 5 3 4 3 4 4 3 4 3 4 3 2
2 6 5 7 7 5 3 1 4 1 4 6 6 9 5 0 2 13 3 3 6 6 5 6 7 8 9 9 10 10 10 11 7 6 14 12 13 13 13 13 14 11 11 12 10 8 9 10 11 10 10 9 9 9 8 8 8 7 7 6 7 6 6 6 6 6 6 6 6 6 7 6 6 6 8 7 7 6 6 6 5 5 6 4 5 5 4 4 4 4 3 3 3 3 3 3 2
2 4 4 4 4 8 6 10 7 4 5 2 5 3 6 3 9 7 4 1 3 6 7 7 9 8 8 7 7 7 12 8 6 8 14 15 13 11 15 15 13 12 10 10 10 9 11 11 11 11 10 10 10 11 9 8 7 7 8 8 7 7 7 6 7 7 7 6 6 7 7 7 7 7 7 8 7 7 6 5 6 6 5 5 5 5 5 4 4 4 3 2 2 2 3 4 2
3 0 3 6 9 11 9 4 2 5 4 5 5 9 7 10 16 5 4 5 2 2 5 6 7 7 7 8 9 10 8 6 10 14 14 13 11 11 14 13 12 11 9 7 8 12 10 8 8 8 10 11 12 10 9 8 8 7 7 7 7 7 7 7 8 7 7 7 6 7 7 8 8 7 7 7 6 6 6 7 7 6 6 5 5 4 5 5 5 4 4 2 4 3 4 5 4
7 1 2 8 6 7 4 9 6 6 3 7 5 12 8 6 9 5 5 5 9 7 8 8 7 7 7 8 9 11 12 12 15 16 15 12 10 9 12 9 11 11 7 8 13 14 11 10 9 8 10 11 11 11 10 10 8 8 8 7 7 8 8 8 8 7 7 7 7 7 8 8 8 8 7 7 7 7 7 7 7 6 6 5 5 5 5 5 4 5 4 4 4 4 4 4 4
0 3 10 4 10 1 1 2 12 12 1 5 7 11 8 12 9 5 6 5 5 9 8 8 8 8 8 8 9 10 12 12 14 13 13 13 12 12 12 13 12 11 13 13 11 8 11 11 11 11 11 13 12 12 11 10 10 9 8 8 7 8 8 8 8 8 7 7 7 7 8 8 9 8 7 7 7 7 7 7 7 5 6 5 5 4 5 5 5 5 5 4 4 5 4 6 4
3 11 9 7 8 10 6 3 6 12 5 1 12 7 1 7 9 6 5 8 9 10 10 7 10 10 9 8 9 10 9 9 10 13 14 13 12 12 12 12 13 15 13 11 12 11 11 12 12 13 14 14 12 12 11 10 9 9 9 9 9 9 9 9 8 7 7 7 7 8 8 8 8 8 8 8 8 8 7 7 6 6 4 5 5 4 5 5 5 5 5 5 4 6 5 5 5
11 7 12 5 9 3 8 1 2 5 7 6 5 8 5 5 5 1 1 5 5 8 12 9 8 6 7 7 7 9 10 11 14 15 16 14 13 14 12 11 12 11 11 12 12 13 14 12 12 12 11 12 11 12 12 11 10 9 8 8 8 9 10 9 8 8 8 8 8 8 8 9 8 8 8 8 8 8 7 7 6 5 5 4 5 4 6 4 4 4 5 4 5 5 5 6 6
14 7 7 8 2 4 5 5 4 6 5 8 6 11 8 11 14 10 5 3 7 10 13 9 6 7 8 7 8 9 10 12 16 13 13 14 14 12 12 11 10 10 10 11 11 11 9 9 9 11 11 11 11 11 10 10 9 8 7 7 8 9 8 8 7 8 8 8 9 9 9 8 8 9 9 8 8 7 7 7 6 5 5 5 5 5 4 4 4 4 6 6 4 6 6 5 5
7 13 14 6 8 4 5 4 2 12 7 9 10 11 10 13 19 13 8 6 9 11 9 5 7 7 7 8 9 9 11 16 16 10 7 9 12 12 12 10 9 8 8 8 10 10 11 9 9 9 11 11 9 9 8 9 8 9 9 7 8 9 9 8 7 8 8 9 9 9 9 9 8 9 9 9 9 8 7 7 7 5 6 5 6 6 5 5 7 6 6 6 5 4 4 4 4
2 2 4 9 8 6 3 4 2 5 2 12 13 13 11 13 17 16 14 9 6 7 7 8 8 9 9 9 10 12 12 18 8 5 10 11 12 10 9 7 8 8 8 9 10 12 13 14 12 14 12 10 10 10 10 10 11 9 9 11 11 9 9 8 9 9 9 9 9 10 10 9 9 9 9 9 9 9 8 7 7 6 6 6 6 8 7 7 7 6 5 4 7 6 5 4 4
3 3 6 6 8 13 5 5 4 3 6 5 7 12 15 14 14 16 9 7 12 11 12 11 11 10 9 10 12 12 15 9 3 8 8 7 9 10 10 9 9 11 12 12 14 16 15 13 14 13 9 11 12 12 11 11 12 12 11 11 10 10 9 10 10 9 10 9 11 11 10 9 10 10 9 9 9 9 8 7 7 7 7 7 7 6 6 5 6 6 4 4 4 7 5 4 4
8 5 2 4 7 2 1 4 5 2 3 11 2 8 12 11 13 17 14 14 11 12 14 14 14 14 11 10 11 13 10 11 8 11 9 9 10 9 10 11 12 15 13 14 14 12 12 12 13 11 11 12 13 13 11 13 11 10 11 9 10 8 8 9 10 10 9 10 11 11 10 9 10 9 9 10 9 9 9 8 8 7 7 7 7 7 6 7 7 8 7 8 4 3 4 2 5
11 9 5 10 1 6 5 3 0 2 7 1 1 7 11 8 10 16 15 11 9 9 12 13 12 14 14 14 15 14 14 12 12 14 14 11 10 10 9 10 12 10 12 13 13 14 12 12 13 13 13 13 12 14 14 12 11 10 9 8 7 9 8 7 9 8 8 9 12 10 9 10 10 9 10 10 9 9 9 10 8 7 8 7 8 8 8 9 7 7 7 7 5 4 3 5 5
13 12 10 8 1 4 4 3 3 1 4 0 5 12 16 13 13 10 12 10 9 11 9 11 11 10 13 11 11 11 14 14 13 13 11 9 9 12 14 15 12 13 16 15 15 14 12 16 16 16 15 15 14 14 14 10 8 7 6 4 3 4 3 4 6 10 10 10 10 10 12 9 9 10 9 10 10 10 9 9 9 8 8 8 8 8 8 10 8 8 8 7 8 9 8 4 3
12 14 15 11 4 1 1 0 2 0 6 4 4 6 16 12 14 17 14 8 13 11 15 16 16 15 13 14 15 14 12 11 13 15 15 12 12 12 11 10 12 14 14 15 14 16 16 15 15 14 13 12 13 14 14 11 11 11 10 10 10 9 11 10 13 15 12 13 13 8 7 10 10 10 9 10 10 9 9 9 9 8 8 8 8 9 8 6 8 8 9 9 9 8 9 4 4
13 13 15 12 8 4 1 3 1 4 8 3 4 10 17 2 5 8 8 13 17 8 15 17 17 15 14 15 15 15 15 15 12 12 11 8 12 11 11 13 16 16 17 13 13 15 17 15 14 15 14 13 13 12 13 12 12 12 15 16 14 14 14 13 12 8 9 8 6 9 9 7 9 10 10 10 9 10 9 9 9 9 9 9 8 8 9 9 8 9 7 8 9 7 6 9 9
16 6 10 9 12 13 8 5 4 5 0 4 1 3 8 16 14 2 6 12 15 13 14 14 14 14 15 14 16 15 16 16 15 16 16 15 14 14 16 17 15 17 16 11 14 14 16 17 14 15 13 13 12 12 14 15 15 14 14 14 13 14 15 16 11 10 7 6 8 9 8 8 8 10 10 10 10 10 10 9 9 9 10 9 9 9 10 8 7 6 8 9 7 7 8 9 9
5 6 13 14 16 8 3 6 7 3 2 10 2 2 6 13 7 9 8 9 14 16 14 15 15 15 16 16 17 18 18 18 17 16 16 17 17 16 16 14 17 16 11 13 16 16 15 14 15 14 14 13 12 13 14 15 15 15 15 13 13 13 13 12 6 6 8 6 8 7 8 8 8 9 9 10 10 10 10 10 10 10 10 10 9 9 9 8 10 9 7 8 9 8 9 9 8
6 11 10 7 7 5 9 6 7 2 3 15 11 4 9 20 15 5 6 14 19 20 14 14 14 16 17 17 18 19 16 14 14 16 17 16 16 16 16 14 10 13 14 14 13 10 11 12 14 14 15 13 12 13 14 15 16 13 13 14 16 14 11 9 6 7 7 7 10 9 7 7 8 8 9 9 9 10 9 9 9 11 10 9 8 10 9 9 9 9 10 10 9 10 8 9 11
8 7 7 4 10 11 5 5 6 3 13 16 10 8 10 14 21 12 11 16 17 9 6 8 9 13 16 16 18 16 14 14 13 15 16 16 12 10 7 9 13 11 10 11 12 12 11 11 13 15 17 14 13 15 15 17 15 14 15 16 17 17 14 10 8 9 7 7 10 10 9 9 7 8 7 8 9 9 9 9 10 10 9 9 9 9 10 10 9 9 9 9 10 11 9 10 10
16 5 7 7 3 1 4 2 5 14 15 13 14 15 16 14 22 10 16 9 8 14 14 6 13 15 16 15 15 16 13 13 13 11 12 11 9 7 7 11 13 13 9 11 12 12 12 13 14 16 16 15 14 14 14 15 14 15 15 15 16 17 14 11 13 14 12 12 11 10 7 6 8 7 7 7 8 9 9 9 9 9 10 10 10 9 9 8 8 8 8 9 9 11 10 9 9
10 7 11 14 5 6 11 7 12 14 13 13 18 16 7 21 28 3 6 8 9 6 6 10 12 14 16 16 16 15 11 9 9 10 11 11 12 13 12 13 12 11 13 15 16 14 13 13 15 16 16 15 15 14 15 16 15 16 16 16 16 14 13 13 13 13 11 12 11 10 8 10 7 8 9 9 9 9 9 9 9 10 10 10 10 8 8 8 8 8 9 10 10 10 9 10 9
10 8 10 14 11 9 9 9 6 7 6 9 2 14 15 8 20 27 25 16 7 7 7 5 7 11 12 13 13 15 13 11 12 12 12 13 13 14 14 14 14 13 14 15 14 13 12 13 15 16 18 15 14 14 16 15 17 17 16 16 15 13 13 13 13 13 12 11 9 11 11 11 10 11 9 10 8 9 9 9 10 10 10 9 9 10 10 9 9 9 9 10 10 10 9 11 11
16 12 12 10 8 6 11 8 12 11 4 2 2 8 7 14 14 3 5 4 13 18 13 8 8 9 11 13 13 11 9 8 9 9 11 13 13 12 12 13 13 13 13 13 11 13 12 13 14 17 16 14 15 16 14 16 16 16 15 15 15 12 12 12 13 12 11 11 10 11 11 9 10 10 9 7 8 9 9 9 10 10 10 9 9 10 10 9 10 9 9 10 10 9 10 10 10
9 9 8 10 15 4 14 4 7 8 3 1 8 9 5 14 14 3 3 2 1 1 8 7 10 9 8 9 11 11 10 9 6 8 10 12 12 11 10 10 11 11 12 11 12 12 13 14 15 16 18 16 17 17 16 18 17 15 16 16 16 15 12 11 10 10 11 11 11 11 11 10 10 7 6 7 8 9 10 10 10 11 9 9 10 10 10 9 10 10 9 9 11 8 10 12 12
6 5 12 13 6 15 7 6 0 2 3 15 4 6 7 10 19 16 19 9 5 1 2 5 7 7 7 10 10 9 10 9 8 9 11 14 11 9 10 11 11 11 10 12 14 14 15 14 13 14 15 12 14 16 18 16 16 15 16 16 15 13 14 14 15 15 14 11 10 10 10 9 7 7 7 7 8 9 9 10 10 10 10 10 10 10 10 10 10 10 10 10 11 11 11 12 12
8 12 13 4 7 6 7 12 3 10 11 6 10 16 7 8 17 3 16 16 15 6 7 9 11 9 12 13 10 13 13 13 13 12 11 10 8 9 9 9 10 12 14 13 14 12 13 14 15 16 15 16 15 16 16 15 15 16 15 16 16 16 15 16 15 14 11 9 9 9 7 7 9 7 8 8 8 10 9 10 9 9 9 9 10 10 10 11 10 9 11 11 10 9 11 11 11
13 11 11 13 8 11 3 1 11 5 12 9 11 9 14 14 21 5 1 12 13 11 11 10 11 13 16 15 16 16 14 12 12 13 12 11 8 8 8 9 9 9 8 10 11 11 10 10 11 14 17 17 18 16 16 15 16 14 14 16 17 16 15 14 13 12 8 10 11 10 10 9 6 8 8 8 9 9 9 9 9 9 9 10 10 10 10 10 10 9 9 8 9 10 9 10 10
3 5 3 3 1 11 13 11 2 3 11 5 13 10 14 11 17 22 16 9 7 11 12 12 16 15 15 14 15 16 15 16 16 13 10 9 10 11 12 12 12 12 10 9 8 6 9 11 11 11 11 9 10 11 12 13 14 14 13 12 12 13 13 13 12 11 11 12 12 10 10 8 10 7 9 9 9 9 9 10 9 10 10 10 10 10 10 10 10 10 10 10 9 9 9 9 8
10 2 2 2 5 1 2 2 12 7 7 11 10 14 8 13 13 18 15 15 8 9 12 13 12 13 14 13 14 15 16 15 12 10 9 10 11 11 12 11 10 6 5 6 7 10 11 9 9 11 13 13 12 13 12 14 12 13 13 13 14 13 14 12 11 11 11 12 10 9 9 9 6 9 9 9 10 10 10 10 10 10 10 10 10 9 9 9 9 10 9 8 7 9 10 9 8
10 13 13 14 14 11 10 13 5 11 10 8 8 19 7 5 4 8 10 12 8 11 11 11 12 14 15 15 17 16 14 14 8 7 8 10 9 8 6 4 4 5 7 8 8 7 7 9 11 11 10 11 11 12 13 13 12 12 14 14 14 11 11 10 11 11 12 11 10 10 8 7 10 9 9 10 10 10 9 10 10 10 10 10 10 10 9 9 9 10 11 10 8 7 8 9 7
Wind_Direction
331 329 313 324 62 99 57 359 119 321 54 303 346 1 236 345 230 80 187 2 146 255 205 68 102 138 165 207 198 185 216 129 198 126 211 230 222 141 156 171 137 137 150 157 139 153 184 145 156 134 131 131 134 139 135 130 133 134 139 145 130 123 124 125 122 120 118 116 115 113 111 108 106 102 98 96 94 93 92 91 92 95 96 94 92 87 84 81 79 81 87 91 91 87 85 84 80
327 328 316 326 18 52 325 107 95 349 40 36 245 97 248 284 40 215 181 193 202 187 169 111 99 108 84 58 122 155 72 15 178 132 273 256 113 123 182 159 145 145 147 155 140 146 143 141 125 125 133 135 143 144 140 141 145 134 140 142 126 130 125 120 117 120 114 114 115 114 112 110 107 103 101 98 97 94 92 91 92 96 97 97 94 92 87 84 83 86 88 92 93 91 88 86 85
333 353 338 22 35 65 104 34 331 70 67 6 278 209 330 241 211 242 211 209 174 132 138 108 116 58 351 329 48 66 224 96 74 66 98 139 137 203 187 161 145 143 145 149 143 136 127 127 119 133 138 145 146 144 148 155 140 133 140 139 126 125 118 120 120 117 113 115 116 116 113 111 107 103 99 97 96 93 91 91 93 97 98 97 96 92 87 85 85 87 93 92 90 89 87 88 89
349 47 335 45 332 37 45 23 88 123 67 221 304 296 240 189 241 217 243 244 151 106 339 20 70 250 114 340 229 74 332 300 203 148 140 174 194 147 161 154 134 131 128 142 142 131 131 133 131 140 149 154 149 148 156 150 142 138 141 133 129 127 125 121 118 116 116 117 115 116 114 111 108 104 101 97 94 91 92 91 93 95 97 97 95 91 89 86 86 87 91 95 94 93 92 90 89
30 321 62 97 97 4 96 101 137 106 2 204 198 283 248 231 232 225 290 224 185 128 20 214 78 350 193 113 156 122 276 215 74 154 127 169 94 145 143 142 131 134 136 140 135 134 137 135 137 148 157 163 152 149 155 152 146 149 139 135 136 129 129 121 115 114 113 115 118 120 117 111 106 102 98 95 93 90 89 90 93 96 96 97 95 92 89 88 87 88 91 94 96 96 95 92 91
64 24 352 72 60 162 56 44 6 262 212 155 217 259 232 229 210 195 162 251 243 276 232 57 165 207 14 295 174 72 187 48 175 208 151 211 154 151 143 141 137 139 139 134 135 142 140 136 140 151 161 160 152 152 155 161 154 140 139 138 142 138 131 123 117 110 114 120 122 122 118 112 105 105 104 98 93 92 91 92 92 95 96 98 97 95 93 90 90 90 91 94 94 92 92 93 93
2 24 0 22 25 51 164 135 244 206 276 162 218 259 247 245 222 128 141 177 270 294 142 211 93 107 63 302 24 232 189 156 122 211 161 156 146 150 145 142 142 138 140 140 140 145 143 139 147 155 162 161 157 155 157 157 147 136 140 143 145 140 126 127 127 124 125 125 126 124 115 111 108 109 104 101 98 93 90 91 93 95 97 98 100 99 96 94 93 94 95 95 97 97 95 95 96
103 62 324 92 301 40 40 206 248 162 279 167 220 250 266 232 168 143 175 128 241 181 285 226 72 109 241 25 179 272 359 189 264 130 125 131 144 146 151 142 145 140 142 143 144 153 149 143 153 154 156 166 162 163 157 153 139 141 146 147 142 136 137 132 130 130 128 125 120 125 119 113 110 106 104 103 100 98 100 98 97 96 98 100 101 101 97 96 97 98 98 98 99 101 100 99 100
3 87 240 63 52 36 52 296 272 240 284 282 268 226 275 186 163 138 170 244 318 223 228 176 239 119 238 13 204 285 321 337 109 127 133 136 147 144 149 148 150 149 144 145 149 157 152 154 158 160 161 170 168 163 157 150 155 153 153 151 145 131 132 132 131 132 126 130 127 123 121 116 114 112 113 105 100 103 106 105 102 102 101 105 107 108 106 102 101 98 96 97 99 100 100 100 101
47 49 314 110 132 306 23 297 60 247 241 243 262 278 204 173 147 139 164 288 223 112 215 8 138 126 73 188 310 356 342 351 115 107 138 144 148 147 148 155 152 148 144 148 155 159 158 162 162 162 162 154 157 163 163 156 159 155 155 158 146 140 138 143 135 132 136 126 125 121 125 123 120 121 117 110 107 108 106 107 105 105 104 104 108 111 108 103 99 96 92 92 94 95 99 102 102
9 13 141 69 24 42 282 271 260 316 280 316 294 241 215 147 137 146 147 202 94 149 215 211 350 152 93 280 224 249 315 146 138 150 151 147 147 153 147 153 154 155 151 153 158 162 164 159 162 163 153 152 159 167 154 157 163 160 160 162 150 146 143 143 139 137 142 132 133 130 130 128 126 124 120 116 112 112 110 108 106 103 100 99 102 105 105 101 98 95 92 91 92 94 96 100 103
337 27 14 103 213 176 238 184 277 277 291 326 277 209 187 139 120 141 193 165 198 324 182 155 241 144 52 330 285 281 1 172 185 153 152 144 152 153 147 146 150 162 157 154 154 166 161 162 159 164 156 156 160 147 138 153 163 158 158 165 158 153 150 149 146 146 145 137 137 136 134 131 129 125 114 115 115 116 113 110 108 103 98 95 95 98 99 101 100 98 96 95 95 95 95 96 100
100 106 80 107 240 188 217 245 248 284 325 293 239 343 132 118 185 190 169 148 123 112 277 217 129 90 209 189 252 312 157 206 163 159 149 151 152 146 143 146 153 156 159 156 157 168 166 160 160 158 162 156 146 149 149 158 163 169 159 165 162 163 158 151 153 152 134 121 89 71 110 124 119 119 112 115 117 120 117 112 109 109 103 100 97 98 103 103 105 101 98 97 98 95 91 88 89
117 181 124 249 70 123 167 241 300 21 309 259 275 294 227 140 236 164 130 163 205 176 235 173 145 131 122 344 297 272 227 178 155 150 150 146 136 143 152 150 152 155 160 164 167 165 165 165 162 160 157 155 151 152 157 160 165 178 163 161 161 169 160 152 146 131 115 103 100 98 97 100 101 96 95 99 103 105 110 114 111 110 110 106 107 103 106 109 110 104 99 99 99 97 91 83 80
150 162 83 117 91 53 245 206 191 135 262 222 319 88 294 280 121 134 164 179 236 201 340 97 163 110 238 162 275 223 189 163 144 144 139 129 133 143 153 154 156 156 161 172 170 164 171 167 165 161 160 161 156 155 161 167 173 175 165 160 157 162 144 131 122 114 113 113 112 110 105 105 104 101 99 100 103 107 108 105 107 106 114 112 110 109 107 112 109 104 98 96 93 89 85 84 80
139 85 77 148 246 168 272 180 319 90 260 183 291 54 347 288 164 123 247 159 234 295 132 197 193 201 216 176 244 240 147 138 140 133 131 128 124 131 148 160 161 167 172 174 174 182 169 168 167 166 164 165 166 161 165 172 174 166 161 152 142 143 137 128 121 120 122 119 116 116 108 97 90 90 96 98 110 111 112 116 117 124 122 123 117 110 101 100 104 97 96 90 84 79 77 74 74
79 79 339 56 256 159 252 169 154 239 246 270 282 66 159 286 295 274 1 115 128 209 239 227 203 59 190 213 275 198 128 125 127 133 133 138 147 143 157 169 167 175 185 188 181 185 179 172 173 168 172 172 170 169 166 170 172 163 162 157 148 146 146 140 132 129 123 120 116 111 109 102 108 99 89 96 93 105 123 122 122 126 130 128 133 109 88 61 70 92 89 88 76 69 63 64 64
72 168 131 220 200 166 208 182 192 221 158 253 157 184 143 291 328 278 77 28 74 5 236 300 312 262 230 266 312 122 134 135 145 148 161 153 160 165 178 188 176 189 186 189 196 185 182 185 176 175 174 177 173 171 171 169 170 167 164 162 154 153 151 144 136 136 132 129 124 123 123 123 122 129 121 129 115 117 126 130 129 129 125 115 118 152 5 6 3 29 78 64 62 61 58 48 32
153 116 123 230 183 239 164 202 210 161 257 253 3 292 180 234 142 225 171 269 154 184 248 3 291 279 17 85 120 133 143 145 157 165 167 168 178 183 186 174 191 186 195 192 196 194 189 183 181 179 181 180 175 172 173 171 164 161 167 156 148 149 150 144 146 141 141 143 142 137 137 144 146 139 133 134 135 123 107 104 129 136 141 140 126 96 342 349 345 6 21 41 45 32 45 28 15
226 134 214 237 205 229 226 200 221 207 218 299 316 281 182 253 160 129 202 200 183 204 209 268 241 232 179 150 141 150 154 161 169 170 177 185 186 186 187 191 194 197 195 194 190 191 191 189 183 181 180 178 180 175 171 171 169 165 165 162 156 151 151 146 154 154 155 157 154 148 143 147 145 138 132 147 141 126 109 91 54 43 43 53 44 34 359 350 353 356 351 16 22 22 13 4 4
252 141 186 227 197 209 246 206 237 238 174 263 270 105 298 269 208 157 190 139 240 252 226 192 210 211 173 169 165 162 161 169 179 185 184 190 193 196 197 195 196 193 192 181 192 198 198 189 182 185 185 181 185 179 175 175 172 171 172 164 160 169 166 168 160 167 167 168 161 155 154 149 153 135 144 134 138 139 124 151 127 98 56 59 33 7 15 341 354 349 348 5 2 11 2 341 359
112 204 211 187 141 197 243 212 224 206 141 192 265 301 254 71 47 200 153 196 223 217 229 217 223 170 155 170 178 170 172 177 184 186 191 190 192 195 195 199 195 192 162 192 202 195 197 192 185 183 183 186 187 182 180 172 176 179 174 167 164 171 174 174 186 182 178 177 169 160 148 155 157 157 131 156 149 161 162 181 173 142 174 198 134 232 247 283 291 335 347 314 328 356 4 348 343
220 271 251 204 194 215 236 202 227 175 200 183 278 236 3 198 261 224 188 206 233 312 231 203 205 160 167 153 156 174 179 185 189 195 193 195 200 203 199 195 189 192 188 203 191 195 191 193 187 182 186 183 190 184 180 179 187 183 175 172 169 178 178 192 196 196 191 180 172 166 163 167 164 161 175 177 186 185 193 186 186 196 205 197 203 200 222 226 244 259 236 271 345 4 344 343 331
196 225 209 245 196 219 210 237 153 171 175 242 206 34 240 293 258 159 199 238 236 293 325 247 161 132 142 155 182 178 185 187 197 200 195 197 195 198 194 191 195 191 195 200 193 192 190 194 189 184 191 184 188 187 189 185 187 182 181 170 185 179 181 192 193 196 189 190 181 174 180 177 167 181 185 183 200 198 204 197 202 206 222 222 151 202 223 236 252 257 268 290 334 1 320 311 323
202 235 213 257 190 232 239 227 255 235 241 240 337 294 256 193 217 52 249 243 244 242 52 88 118 133 151 170 185 194 193 199 203 205 210 221 218 210 192 190 183 186 202 200 195 192 197 191 185 191 190 190 188 186 198 192 188 189 185 189 193 183 196 192 193 188 200 192 188 180 180 183 190 190 194 189 187 206 202 200 201 217 222 226 213 224 210 238 249 258 258 257 257 274 298 295 314
200 215 205 217 217 231 224 228 240 239 265 182 263 251 258 240 73 256 246 253 237 168 100 118 129 148 171 185 189 190 197 202 204 203 208 202 196 193 208 195 189 197 204 197 188 200 193 185 190 194 192 190 188 187 197 190 193 195 194 196 195 190 200 198 190 201 201 194 195 188 188 194 196 195 196 197 190 204 209 205 209 216 220 208 218 237 200 235 246 256 264 260 255 266 282 260 256
186 205 228 219 234 226 212 206 228 180 205 170 194 255 259 103 151 267 223 238 144 147 153 160 156 184 193 190 195 202 198 203 202 203 190 201 202 204 209 200 200 208 197 200 195 195 188 185 196 195 193 189 186 194 194 195 193 197 198 193 194 199 199 197 202 203 206 202 199 192 189 196 197 197 199 200 206 212 201 214 222 219 227 202 202 239 216 227 239 241 238 235 238 244 248 247 234
167 203 249 264 268 249 269 278 249 108 281 195 199 252 277 257 121 242 222 257 170 159 179 178 192 198 199 202 199 206 212 216 205 182 203 197 207 204 202 201 207 202 199 204 197 188 185 192 194 194 193 189 190 198 194 195 196 196 199 202 204 202 197 204 208 211 212 209 200 197 197 195 193 202 206 209 208 211 215 216 220 220 230 218 213 227 222 220 227 238 235 226 230 223 253 265 238
195 165 250 278 282 261 222 227 235 157 254 145 174 312 278 190 228 229 211 140 187 175 188 199 202 207 206 203 205 206 217 208 192 205 216 213 211 201 207 208 201 201 208 199 191 186 194 191 192 195 192 192 194 198 198 198 193 193 196 202 205 201 202 205 211 211 214 213 207 203 201 200 197 201 205 209 208 214 211 201 220 221 218 218 214 223 229 225 223 241 260 242 262 254 272 274 265
101 207 215 298 272 265 224 197 191 156 238 153 135 263 228 229 237 217 191 140 122 163 214 214 218 216 211 203 204 214 217 202 207 216 218 217 215 209 214 208 202 203 200 192 183 200 194 190 191 190 193 196 198 199 196 196 197 195 195 198 198 198 204 207 214 213 211 212 206 207 207 205 204 206 203 206 200 207 212 215 216 217 213 210 207 205 217 208 221 219 241 236 249 240 253 262 270
198 221 110 226 247 261 182 179 159 187 215 171 158 248 251 262 255 219 199 167 162 202 218 217 221 221 217 210 211 213 216 206 212 216 219 216 216 219 222 210 205 204 192 192 199 201 187 190 186 195 190 198 196 199 198 200 195 195 195 196 194 196 200 207 210 211 210 210 204 209 208 208 210 210 207 202 203 204 211 216 213 216 202 195 197 199 202 208 207 222 217 229 254 257 253 264 254
238 170 230 218 213 249 338 204 168 197 242 179 146 255 237 257 256 206 214 180 193 220 225 220 222 223 220 218 220 225 226 214 222 225 222 218 212 216 214 214 205 201 202 203 203 190 195 195 191 196 190 197 198 198 200 200 198 198 197 197 196 196 201 206 209 210 208 207 209 213 209 210 209 208 206 203 209 209 213 216 215 206 203 192 200 198 190 208 209 222 222 199 237 258 255 265 239
248 205 231 214 211 239 317 243 208 206 165 260 191 228 313 276 260 232 226 191 195 221 239 221 224 226 223 224 223 229 238 239 232 229 224 217 219 218 217 215 207 207 205 200 199 195 200 198 195 199 197 197 198 197 198 200 197 199 199 198 201 198 204 209 210 207 208 210 210 215 211 211 210 206 205 203 212 213 215 219 213 205 195 194 193 198 201 208 205 215 225 206 199 243 238 253 261
220 202 230 200 208 183 221 313 231 229 188 212 229 237 215 255 262 268 321 189 216 232 241 236 231 235 234 235 236 236 237 238 234 226 224 215 218 216 218 215 212 209 209 206 201 198 202 197 200 201 201 198 198 196 198 199 200 200 200 201 201 204 209 211 209 203 210 210 209 214 211 209 209 207 205 205 212 214 212 212 210 202 188 190 198 198 214 202 213 204 233 217 203 214 239 239 252
207 190 241 243 254 197 202 147 257 153 250 226 212 227 224 244 259 251 228 169 189 225 237 239 234 233 234 233 238 240 242 244 243 235 225 218 220 219 216 214 210 208 208 205 203 204 201 204 201 202 202 200 200 199 198 199 200 204 203 201 204 212 215 214 209 211 212 210 212 212 211 209 206 207 205 203 209 211 212 211 209 199 185 191 200 209 216 206 212 214 223 236 214 220 230 231 235
195 197 222 225 221 217 198 226 240 171 203 232 220 223 216 233 253 245 242 185 193 220 239 256 245 238 235 232 234 234 234 242 243 242 241 229 223 218 214 210 212 209 207 201 205 202 205 204 203 203 204 200 195 197 191 198 198 202 203 203 212 212 213 213 212 216 211 215 214 212 213 209 204 206 206 203 207 206 211 210 210 196 192 187 198 208 213 206 212 216 231 226 240 252 239 241 229
205 216 214 216 217 247 237 224 241 202 233 225 225 235 227 226 239 244 234 218 214 230 239 234 237 235 232 232 232 234 235 240 245 234 234 226 225 222 216 203 208 204 206 203 203 206 205 204 195 206 199 192 192 192 194 194 199 202 207 209 213 207 211 210 215 214 215 215 213 215 213 210 206 205 206 201 206 208 211 207 204 205 193 195 202 213 208 212 209 209 216 201 223 242 253 213 230
181 163 191 212 189 234 204 203 252 209 184 255 215 239 240 233 242 252 243 221 224 220 227 233 239 233 232 230 237 235 236 251 240 240 234 228 221 213 204 206 197 202 209 202 207 208 207 203 203 207 189 197 199 197 196 197 200 200 198 207 206 207 205 207 217 215 216 215 215 216 214 210 208 208 204 203 206 206 208 208 206 206 194 203 208 212 211 207 202 205 197 230 210 221 242 191 198
223 211 188 205 234 229 301 227 208 207 158 258 256 264 255 240 240 253 241 232 227 219 219 224 225 237 228 230 237 242 248 246 232 239 234 221 220 213 204 206 206 209 207 208 212 210 207 205 211 201 199 198 203 200 194 203 201 202 199 203 200 212 213 214 220 218 212 216 218 218 214 208 209 210 205 205 206 207 209 206 209 203 200 194 203 214 208 212 204 206 195 210 223 239 243 215 186
224 219 204 229 218 149 264 292 94 234 186 229 256 274 269 256 240 247 249 240 238 228 227 230 223 231 232 225 225 232 236 239 234 234 231 220 209 211 210 211 210 204 209 212 209 210 209 211 208 203 203 201 200 202 203 204 198 197 204 199 202 201 203 208 220 224 218 216 224 216 215 210 207 209 206 205 208 209 206 209 205 201 203 194 202 210 208 218 206 209 202 210 196 240 206 240 189
222 219 222 225 158 196 208 249 219 225 279 53 309 293 279 243 242 247 252 237 236 234 232 238 240 232 241 240 240 233 236 232 234 242 242 224 211 212 208 209 200 203 210 209 204 205 207 209 208 205 204 201 202 199 201 193 178 181 185 171 166 216 261 201 213 230 221 221 225 214 217 205 208 210 205 206 205 211 208 208 206 206 201 199 201 211 213 216 209 208 199 200 198 214 238 225 210
223 223 214 208 163 177 328 319 106 313 271 227 145 286 263 257 232 231 237 225 232 220 222 228 231 228 231 239 236 238 239 237 229 233 234 221 214 220 216 210 204 215 215 211 203 206 206 211 208 207 208 207 204 199 193 184 189 187 178 188 198 205 216 210 216 218 211 216 220 217 212 206 210 211 208 208 208 207 210 207 206 204 207 205 205 214 218 209 210 204 203 204 212 210 224 232 235
217 220 201 203 202 215 195 321 129 241 236 282 178 212 272 89 243 221 224 234 238 216 222 226 226 230 227 233 234 233 233 239 236 240 242 227 220 218 216 208 210 214 217 206 203 209 209 211 207 204 205 206 203 198 186 186 192 196 197 201 204 204 214 224 225 223 218 221 211 215 217 204 207 208 212 210 210 207 209 208 206 208 210 212 209 212 217 216 212 211 199 203 215 203 196 234 238
233 201 177 179 210 214 214 231 226 249 302 301 343 224 266 285 253 209 213 231 244 232 228 224 229 229 231 231 234 231 231 231 230 228 231 227 224 211 215 211 210 215 214 195 206 209 208 209 202 203 206 206 202 194 188 191 195 198 201 207 209 213 215 225 211 218 211 198 202 213 209 210 203 206 210 210 210 208 206 209 207 210 212 215 208 215 220 217 216 214 203 209 208 201 202 219 236
240 134 137 194 202 204 162 202 238 264 24 272 173 8 292 260 274 168 174 239 252 243 227 220 221 224 230 234 235 232 229 227 223 227 227 224 222 217 218 216 213 214 202 200 209 208 206 204 204 205 206 205 201 192 193 197 200 198 201 204 212 220 222 230 206 196 200 195 213 207 206 209 204 206 208 209 209 210 205 208 208 213 214 216 211 221 220 217 216 215 206 204 210 212 210 218 226
208 150 161 175 142 149 181 189 200 224 205 249 226 163 251 275 257 181 199 214 241 243 228 226 214 217 224 230 237 236 232 233 229 227 231 230 225 222 219 220 212 210 206 206 212 209 208 202 203 202 208 203 199 195 196 199 202 199 201 205 211 219 217 222 188 205 201 189 217 214 209 206 207 205 208 209 210 209 208 206 211 215 217 217 212 220 221 219 218 216 214 212 211 217 213 212 220
107 146 105 112 159 189 170 161 144 189 230 234 217 188 201 271 265 203 191 215 226 255 244 215 211 224 228 229 235 237 226 230 230 228 232 234 230 230 220 213 218 216 207 204 207 203 203 202 203 203 208 201 196 198 195 201 200 200 207 206 210 217 213 207 204 216 205 197 216 216 208 212 202 211 196 210 210 204 207 206 210 215 214 215 216 218 221 218 218 217 219 216 216 216 216 216 220
147 172 146 117 231 90 202 232 175 222 234 221 204 197 185 228 269 211 216 226 198 222 239 180 210 217 223 229 234 241 228 227 229 231 241 240 243 234 211 217 218 216 201 203 209 204 199 199 200 205 208 201 198 198 196 202 198 205 211 210 213 217 209 205 209 218 208 212 216 216 207 203 211 203 201 205 206 202 203 206 206 209 214 214 219 217 221 214 216 214 216 216 221 220 221 218 221
170 146 147 184 188 160 223 152 215 215 219 216 209 182 196 224 250 160 226 222 233 251 242 210 204 214 221 228 232 241 234 228 225 223 226 227 222 222 216 220 220 212 206 206 207 202 200 200 199 203 209 201 198 193 197 200 199 205 207 210 216 216 211 210 214 220 211 213 213 214 200 213 201 202 208 207 206 195 198 204 202 209 214 215 219 214 217 212 212 214 217 219 221 221 218 218 222
182 192 169 180 199 203 216 200 227 237 239 239 227 169 224 254 270 256 254 242 243 243 242 244 222 218 220 229 236 238 237 218 221 219 221 223 219 221 216 215 216 215 212 210 207 201 200 201 200 202 211 197 196 194 198 199 204 207 207 209 214 211 212 211 217 220 215 214 209 213 210 212 205 212 202 209 192 189 197 204 205 212 214 213 212 216 216 213 213 216 219 222 223 223 220 219 224
197 187 195 200 196 207 218 198 215 217 216 325 159 149 215 176 233 50 153 224 238 240 226 211 220 227 226 227 234 244 253 238 221 223 224 226 227 222 218 215 217 215 213 210 206 205 201 202 200 204 209 198 194 196 196 200 205 207 207 210 213 210 211 210 218 219 215 212 213 213 214 209 210 211 203 194 175 188 195 200 208 212 211 211 209 213 217 217 216 217 221 224 225 223 219 220 225
198 194 198 213 219 207 242 192 224 215 184 179 190 204 172 214 252 176 188 176 347 305 220 211 232 235 238 249 247 245 246 248 230 231 235 234 229 222 220 219 219 216 214 210 207 204 203 206 203 204 205 198 195 195 198 201 203 204 206 207 211 209 209 212 219 218 220 214 213 209 215 208 211 200 191 177 187 184 194 202 206 212 208 209 211 213 214 216 216 218 222 222 226 217 222 220 225
160 177 219 220 237 219 250 318 25 43 156 231 149 282 285 327 280 257 259 237 241 207 265 272 265 262 264 256 259 262 256 250 240 231 231 232 229 225 218 217 216 213 211 208 209 204 203 203 203 207 210 204 199 200 201 200 202 202 207 208 209 207 208 209 214 216 215 211 208 210 212 208 197 193 188 181 184 193 197 199 204 208 209 210 212 212 213 215 215 217 221 221 224 219 220 224 224
130 209 209 165 72 87 184 229 160 212 227 233 181 222 227 205 268 253 229 237 233 195 210 224 234 244 252 248 244 245 244 241 237 235 236 239 236 232 226 223 218 212 211 212 212 208 205 204 201 203 205 204 202 201 202 200 200 203 207 207 209 207 208 213 216 218 209 202 209 210 202 197 200 187 180 186 187 196 200 199 203 205 207 208 212 212 213 216 216 219 219 222 222 219 222 226 226
192 206 188 183 174 235 187 1 225 174 218 237 232 212 227 196 246 254 197 214 223 205 207 206 223 227 237 244 246 246 247 251 248 238 232 233 231 236 234 232 229 227 221 218 217 210 209 209 209 207 208 206 202 199 200 203 201 202 205 205 205 206 210 213 215 215 198 202 209 207 204 205 178 178 181 183 195 198 197 199 202 206 206 210 212 214 212 216 216 221 222 225 222 219 221 225 221
34 8 245 154 330 232 212 197 312 188 237 206 242 196 235 204 233 247 236 226 191 200 211 212 215 218 225 230 237 243 245 242 241 238 230 224 225 222 220 221 221 216 215 219 217 207 209 209 205 211 216 214 213 210 203 207 206 205 206 205 208 210 211 211 211 204 204 207 210 203 203 194 194 172 189 190 195 197 194 197 201 206 208 209 211 214 212 214 216 222 223 225 223 218 224 226 224
209 205 273 163 208 345 30 253 219 212 230 229 249 243 217 225 225 242 243 242 209 201 211 219 222 226 233 231 231 237 237 240 238 231 230 230 229 228 224 220 220 214 216 214 208 208 212 207 208 206 208 208 207 207 203 209 204 207 205 204 206 205 208 207 207 203 206 212 208 199 201 196 161 193 186 193 197 197 197 200 201 205 207 208 210 212 210 213 216 222 226 229 224 221 225 229 226
214 195 201 194 186 209 208 233 206 225 224 225 218 249 247 266 226 225 242 242 201 212 211 218 217 221 229 231 233 236 239 238 231 230 232 235 236 239 255 259 230 205 215 210 213 211 214 208 208 206 207 209 206 207 207 208 207 204 205 208 209 205 205 202 203 203 207 209 204 200 192 168 191 195 184 196 197 198 200 201 203 204 207 210 211 211 208 210 215 218 223 225 224 219 225 231 226